GW6556 Weather Reports


time (UTC)temp
C
wind
direction
speed
KPH
gust
KPH
rain 1hr
cm
rain 24hr
cm
rain mn
cm
humidity
%
barometer
mb
20260504081558 2 298 0.0 3.2 0.00 0.00 0.00 97 1018.0
20260504081054 2 294 1.6 3.2 0.00 0.00 0.00 97 1018.0
20260504080551 2 309 3.2 3.2 0.00 0.00 0.00 97 1018.0
20260504050403 4 315 1.6 3.2 0.00 0.00 0.00 95 1019.0
20260504045900 3 0 0.0 1.6 0.00 0.00 0.00 94 1018.8
20260504045355 3 299 0.0 1.6 0.00 0.00 0.00 94 1018.8
20260504044852 4 311 1.6 3.2 0.00 0.00 0.00 94 1018.6
20260504044350 4 269 3.2 4.8 0.00 0.00 0.00 94 1019.0
20260504043847 4 324 0.0 1.6 0.00 0.00 0.00 94 1018.7
20260504043344 4 295 3.2 3.2 0.00 0.00 0.00 94 1018.6
20260504042841 4 283 3.2 3.2 0.00 0.00 0.00 93 1018.5
20260504042337 4 287 1.6 3.2 0.00 0.00 0.00 93 1018.6
20260504041834 4 297 1.6 3.2 0.00 0.00 0.00 92 1018.6
20260504041330 4 288 3.2 4.8 0.00 0.00 0.00 92 1018.7
20260504040826 5 307 3.2 3.2 0.00 0.00 0.00 92 1018.4
20260504040324 5 55 0.0 3.2 0.00 0.00 0.00 92 1018.4
20260504035820 5 292 3.2 3.2 0.00 0.00 0.00 92 1018.1
20260504035318 5 282 1.6 3.2 0.00 0.00 0.00 92 1018.2
20260504034814 5 329 0.0 3.2 0.00 0.00 0.00 92 1018.1
20260504034312 5 329 0.0 3.2 0.00 0.00 0.00 91 1018.2
20260504033809 5 325 0.0 3.2 0.00 0.00 0.00 90 1018.0
20260504033307 5 301 3.2 4.8 0.00 0.00 0.00 90 1018.3
20260504032803 5 315 0.0 3.2 0.00 0.00 0.00 89 1018.2
20260504032300 5 293 0.0 3.2 0.00 0.00 0.00 88 1018.4
20260504031757 5 307 0.0 0.0 0.00 0.00 0.00 88 1018.2
20260504031254 5 313 1.6 3.2 0.00 0.00 0.00 88 1018.3
20260504030750 5 269 0.0 3.2 0.00 0.00 0.00 88 1018.2
20260504030248 5 269 0.0 1.6 0.00 0.00 0.00 88 1018.4
20260504025744 5 288 3.2 3.2 0.00 0.00 0.00 87 1018.2
20260504025241 5 240 0.0 1.6 0.00 0.00 0.00 87 1018.3
20260504024738 6 347 0.0 3.2 0.00 0.00 0.00 86 1018.5
20260504024234 6 302 1.6 3.2 0.00 0.00 0.00 85 1018.4
20260504023731 6 294 1.6 3.2 0.00 0.00 0.00 85 1018.5
20260504023227 6 249 0.0 0.0 0.00 0.00 0.00 85 1018.5
20260504022723 6 299 1.6 3.2 0.00 0.00 0.00 84 1018.4
20260504022220 6 269 0.0 1.6 0.00 0.00 0.00 85 1018.4
20260504021717 6 290 1.6 3.2 0.00 0.00 0.00 82 1018.3
20260504021214 7 293 0.0 0.0 0.00 0.00 0.00 82 1018.2
20260504020711 7 280 0.0 0.0 0.00 0.00 0.00 82 1018.0
20260504020207 7 320 0.0 1.6 0.00 0.00 0.00 82 1018.1
20260504015704 7 303 0.0 3.2 0.00 0.00 0.00 80 1017.9
20260504015200 7 310 1.6 3.2 0.00 0.00 0.00 79 1018.1
20260504014656 7 269 0.0 1.6 0.00 0.00 0.00 79 1017.9
20260504014153 7 299 1.6 3.2 0.00 0.00 0.00 79 1018.1
20260504013651 7 294 0.0 3.2 0.00 0.00 0.00 78 1018.1
20260504013148 8 286 0.0 3.2 0.00 0.00 0.00 77 1018.1
20260504012645 8 317 1.6 3.2 0.00 0.00 0.00 75 1017.9
20260504012143 8 305 1.6 3.2 0.00 0.00 0.00 74 1017.9
20260504011639 8 256 0.0 1.6 0.00 0.00 0.00 74 1017.7
20260504011136 8 283 0.0 3.2 0.00 0.00 0.00 73 1017.7
20260504010631 9 293 0.0 0.0 0.00 0.00 0.00 72 1017.6
20260504010127 9 290 0.0 1.6 0.00 0.00 0.00 73 1017.7
20260504005625 9 287 1.6 3.2 0.00 0.00 0.00 70 1017.6
20260504005121 10 294 1.6 1.6 0.00 0.00 0.00 70 1017.4
20260504004620 10 295 1.6 3.2 0.00 0.00 0.00 68 1017.4
20260504004117 10 345 0.0 3.2 0.00 0.00 0.00 68 1017.2
20260504003613 10 287 3.2 3.2 0.00 0.00 0.00 67 1017.2
20260503222755 18 274 4.8 11.3 0.00 0.00 0.00 38 1017.0
20260503222253 18 274 4.8 11.3 0.00 0.00 0.00 38 1017.0
20260503221751 18 257 4.8 6.4 0.00 0.00 0.00 38 1017.0
20260503221249 18 268 6.4 16.1 0.00 0.00 0.00 36 1017.1
20260503220745 18 330 8.0 8.0 0.00 0.00 0.00 36 1017.1
20260503220242 18 346 1.6 14.5 0.00 0.00 0.00 38 1017.0
20260503215739 18 264 4.8 8.0 0.00 0.00 0.00 39 1017.0
20260503215236 18 324 6.4 8.0 0.00 0.00 0.00 38 1017.0
20260503214734 18 304 3.2 8.0 0.00 0.00 0.00 37 1017.3
20260503214230 18 237 6.4 14.5 0.00 0.00 0.00 39 1017.0
20260503213729 18 300 6.4 9.7 0.00 0.00 0.00 38 1017.1
20260503213226 18 294 6.4 11.3 0.00 0.00 0.00 37 1017.1
20260503212722 18 267 11.3 14.5 0.00 0.00 0.00 43 1017.1
20260503212220 18 283 3.2 9.7 0.00 0.00 0.00 40 1017.1
20260503211717 18 66 8.0 12.9 0.00 0.00 0.00 40 1017.2
20260503211213 18 274 3.2 9.7 0.00 0.00 0.00 46 1017.1
20260503210709 18 243 9.7 14.5 0.00 0.00 0.00 44 1017.0
20260503210207 18 310 11.3 16.1 0.00 0.00 0.00 45 1017.3
20260503205702 18 290 1.6 20.9 0.00 0.00 0.00 45 1017.4
20260503205158 18 256 4.8 11.3 0.00 0.00 0.00 45 1017.5
20260503204655 17 359 1.6 8.0 0.00 0.00 0.00 44 1017.4
20260503204153 17 308 8.0 14.5 0.00 0.00 0.00 43 1017.4
20260503203649 17 260 6.4 9.7 0.00 0.00 0.00 42 1017.5
20260503203147 17 314 4.8 12.9 0.00 0.00 0.00 44 1017.6
20260503202644 17 262 6.4 11.3 0.00 0.00 0.00 41 1017.7
20260503202142 17 281 3.2 9.7 0.00 0.00 0.00 44 1017.9
20260503201640 17 290 9.7 11.3 0.00 0.00 0.00 45 1018.0
20260503201137 17 250 9.7 16.1 0.00 0.00 0.00 43 1018.1
20260503200633 17 344 1.6 12.9 0.00 0.00 0.00 45 1018.1
20260503200130 17 265 16.1 17.7 0.00 0.00 0.00 43 1018.3
20260503195627 17 324 9.7 9.7 0.00 0.00 0.00 44 1018.2
20260503195123 17 227 0.0 12.9 0.00 0.00 0.00 44 1018.4
20260503194621 17 314 11.3 14.5 0.00 0.00 0.00 45 1018.4
20260503194116 17 279 8.0 9.7 0.00 0.00 0.00 48 1018.2
20260503193613 17 264 9.7 22.5 0.00 0.00 0.00 44 1018.4
20260503193108 17 294 6.4 22.5 0.00 0.00 0.00 42 1018.5
20260503192604 17 275 4.8 11.3 0.00 0.00 0.00 41 1018.4
20260503192100 18 240 12.9 25.7 0.00 0.00 0.00 44 1018.5
20260503191557 17 252 4.8 12.9 0.00 0.00 0.00 42 1018.8
20260503191054 17 315 11.3 14.5 0.00 0.00 0.00 44 1019.0
20260503190551 17 328 6.4 9.7 0.00 0.00 0.00 40 1018.7
20260503190048 17 323 6.4 17.7 0.00 0.00 0.00 47 1018.8
20260503185544 17 259 8.0 17.7 0.00 0.00 0.00 43 1019.0
20260503185044 17 256 11.3 11.3 0.00 0.00 0.00 43 1018.8
20260503184540 17 285 9.7 11.3 0.00 0.00 0.00 44 1018.8
20260503184037 16 255 16.1 17.7 0.00 0.00 0.00 45 1019.1
20260503183534 17 156 1.6 6.4 0.00 0.00 0.00 42 1019.0
20260503183031 17 248 9.7 11.3 0.00 0.00 0.00 42 1019.0
20260503182529 17 242 14.5 19.3 0.00 0.00 0.00 43 1019.1
20260503182027 16 328 11.3 14.5 0.00 0.00 0.00 45 1019.0
20260503181524 16 260 6.4 9.7 0.00 0.00 0.00 42 1019.1
20260503181020 16 285 9.7 16.1 0.00 0.00 0.00 42 1019.1
20260503180517 16 288 4.8 14.5 0.00 0.00 0.00 44 1019.3
20260503180014 16 237 6.4 14.5 0.00 0.00 0.00 42 1019.2
20260503175512 16 314 8.0 14.5 0.00 0.00 0.00 42 1019.3
20260503175009 16 267 3.2 4.8 0.00 0.00 0.00 42 1019.4
20260503174506 16 266 9.7 14.5 0.00 0.00 0.00 44 1019.3
20260503174002 16 74 3.2 6.4 0.00 0.00 0.00 40 1019.3
20260503173457 16 252 8.0 12.9 0.00 0.00 0.00 44 1019.3
20260503172954 16 316 9.7 16.1 0.00 0.00 0.00 48 1019.3
20260503172452 16 299 6.4 8.0 0.00 0.00 0.00 45 1019.6
20260503171948 16 289 9.7 11.3 0.00 0.00 0.00 45 1019.6
20260503171445 16 255 11.3 14.5 0.00 0.00 0.00 44 1019.7
20260503170943 15 312 6.4 6.4 0.00 0.00 0.00 47 1019.8
20260503170438 16 260 6.4 11.3 0.00 0.00 0.00 48 1019.8
20260503150831 13 258 1.6 8.0 0.00 0.00 0.00 54 1020.9
20260503150327 13 123 3.2 8.0 0.00 0.00 0.00 54 1020.8
20260503140251 11 241 6.4 9.7 0.00 0.00 0.00 63 1020.7
20260503131221 6 289 0.0 3.2 0.00 0.00 0.00 93 1020.4
20260503130719 5 84 1.6 3.2 0.00 0.00 0.00 96 1020.2
20260503130215 5 65 3.2 4.8 0.00 0.00 0.00 98 1020.4
20260503120141 1 307 0.0 0.0 0.00 0.00 0.00 98 1020.3
20260503110609 1 299 1.6 3.2 0.00 0.00 0.00 98 1019.6
20260503110106 1 315 1.6 1.6 0.00 0.00 0.00 98 1019.6
20260503090455 1 307 3.2 6.4 0.00 0.00 0.00 97 1018.6